Cincinnati, OH

3:50 AM EDT on August 30, 2016 (GMT -0400)
Cincinnati Municipal-Lunken

Weather History for KLUK - March, 2014

Change the Weather History Date:

Tuesday, March 18, 2014

  Actual Average Record
Temperature  
Mean Temperature 40 °F -  
Max Temperature 57 °F 54 °F 132 °F (1998)
Min Temperature 24 °F 32 °F 16 °F (1959)
Degree Days  
Heating Degree Days 26    
Moisture  
Dew Point 30 °F    
Average Humidity 73    
Maximum Humidity 92    
Minimum Humidity 49    
Precipitation  
Precipitation 0.00 in - - ()
Sea Level Pressure  
Sea Level Pressure 29.94 in    
Wind  
Wind Speed 4 mph (SE)    
Max Wind Speed 16 mph    
Max Gust Speed 23 mph    
Visibility 10 miles    
Events      
Averages and records for this station are not official NWS values.
T = Trace of Precipitation, MM = Missing Value Source: NWS Daily Summary

Daily Weather History Graph

Daily Weather History Graph

Search for Another Location

Airport or City:

Trip Planner

Search our weather history database for the weather conditions in past years. The results will help you decide how hot, cold, wet, or windy it might be!

Date:

Astronomy

Mar. 18, 2014 Rise Set
Actual Time 7:44 AM EDT 7:47 PM EDT
Civil Twilight 7:17 AM EDT 8:14 PM EDT
Nautical Twilight 6:46 AM EDT 8:45 PM EDT
Astronomical Twilight 6:15 AM EDT 9:17 PM EDT
Moon 10:02 PM EDT (3/18) 8:34 AM EDT (3/18)
Length of Visible Light 12h 56m
Length of Day
12h 03m
Waning Gibbous, 96% of the Moon is Illuminated
Mar 18
Waning Gibbous
Mar 23
Last Quarter
Mar 30
New
Apr 7
First Quarter
Apr 15
Full

Hourly Weather History & Observations

Time (EDT) Temp. Windchill Dew Point Humidity Pressure Visibility Wind Dir Wind Speed Gust Speed Precip Events Conditions
12:53 AM 27.0 °F - 23.0 °F 85% 29.94 in 10.0 mi Calm Calm - N/A   Clear
1:53 AM 27.0 °F - 24.1 °F 89% 29.94 in 10.0 mi Calm Calm - N/A   Clear
2:53 AM 26.1 °F - 21.9 °F 84% 29.94 in 10.0 mi Calm Calm - N/A   Clear
3:53 AM 26.1 °F 21.9 °F 23.0 °F 88% 29.94 in 10.0 mi NNE 3.5 mph - N/A   Clear
4:53 AM 25.0 °F - 23.0 °F 92% 29.93 in 10.0 mi Calm Calm - N/A   Clear
5:53 AM 24.1 °F - 21.9 °F 91% 29.94 in 9.0 mi Calm Calm - N/A   Scattered Clouds
6:02 AM 25.0 °F - 21.9 °F 88% 29.92 in 10.0 mi Calm Calm - N/A   Mostly Cloudy
6:53 AM 25.0 °F - 23.0 °F 92% 29.95 in 9.0 mi Calm Calm - N/A   Scattered Clouds
7:53 AM 26.1 °F 21.9 °F 23.0 °F 88% 29.97 in 10.0 mi NNE 3.5 mph - N/A   Clear
8:53 AM 28.9 °F 25.2 °F 25.0 °F 85% 29.98 in 10.0 mi NE 3.5 mph - N/A   Clear
9:53 AM 36.0 °F 30.3 °F 28.9 °F 76% 29.99 in 10.0 mi NNE 6.9 mph - N/A   Clear
10:53 AM 45.0 °F 40.1 °F 30.9 °F 58% 29.99 in 10.0 mi ESE 9.2 mph - N/A   Clear
11:53 AM 48.0 °F - 32.0 °F 54% 30.00 in 10.0 mi SE 12.7 mph 18.4 mph N/A   Clear
12:53 PM 51.1 °F - 33.1 °F 50% 29.99 in 10.0 mi South 13.8 mph - N/A   Clear
1:53 PM 53.1 °F - 36.0 °F 52% 30.00 in 10.0 mi South 16.1 mph 23.0 mph N/A   Partly Cloudy
2:53 PM 52.0 °F - 36.0 °F 54% 29.97 in 10.0 mi SSE 9.2 mph 21.9 mph N/A   Partly Cloudy
3:53 PM 55.0 °F - 37.0 °F 51% 29.96 in 10.0 mi South 12.7 mph - N/A   Scattered Clouds
4:53 PM 55.9 °F - 37.0 °F 49% 29.94 in 10.0 mi SSE 15.0 mph 21.9 mph N/A   Clear
5:53 PM 55.0 °F - 37.9 °F 53% 29.91 in 10.0 mi South 13.8 mph - N/A   Clear
6:53 PM 53.1 °F - 37.9 °F 57% 29.90 in 10.0 mi South 10.4 mph - N/A   Clear
7:53 PM 50.0 °F - 37.9 °F 63% 29.89 in 10.0 mi South 8.1 mph - N/A   Clear
8:53 PM 46.0 °F 43.1 °F 37.9 °F 73% 29.90 in 10.0 mi SSW 5.8 mph - N/A   Clear
9:53 PM 44.1 °F - 37.0 °F 76% 29.89 in 10.0 mi Calm Calm - N/A   Mostly Cloudy
10:53 PM 39.0 °F 36.8 °F 35.1 °F 86% 29.86 in 10.0 mi ENE 3.5 mph - N/A   Clear
11:53 PM 39.0 °F - 35.1 °F 86% 29.86 in 10.0 mi Calm Calm - N/A   Clear